EHI
0 0 0 0 0 0 0 0 0 0 0 0 0 0 0 0 0 0 0 0 1 2 3 4 4 4 3 4 4 3 1 2 2 1 0 1 0 0 0 0 0 0 0 1 2 2 1 0 0
0 0 0 0 0 0 0 0 0 0 0 0 0 0 0 0 0 0 0 0 0 1 2 4 5 4 3 3 3 2 1 1 1 0 0 1 0 0 0 0 0 0 0 0 1 1 1 1 0
0 0 0 0 0 0 0 0 0 0 0 0 0 0 0 0 0 0 0 0 0 0 1 4 6 6 4 3 3 2 0 0 0 0 0 0 0 0 0 0 0 0 0 0 0 0 1 1 1
0 0 0 0 0 0 0 0 0 0 0 0 0 0 0 0 0 0 0 0 0 0 1 3 7 7 5 3 3 2 1 0 0 0 0 0 0 0 0 0 0 0 0 0 0 0 0 0 0
0 0 0 0 0 0 0 0 0 0 0 0 0 0 0 0 0 0 0 0 0 0 1 2 6 7 5 3 3 2 1 0 0 0 0 0 0 0 0 0 0 0 0 0 0 0 0 0 0
0 0 0 0 0 0 0 0 0 0 0 0 0 0 0 0 0 0 0 0 0 0 1 1 3 5 5 4 3 2 1 0 0 0 0 0 0 0 0 0 0 0 0 0 0 0 0 0 0
0 0 0 0 0 0 0 0 0 0 0 0 0 0 0 0 0 0 0 0 0 0 0 0 1 3 4 3 2 2 1 0 0 0 0 0 0 0 0 0 0 0 0 0 0 0 0 0 0
0 0 0 0 0 0 0 0 0 1 0 0 0 0 0 0 0 0 0 1 2 1 0 0 0 1 2 1 1 1 0 0 0 0 0 0 0 0 0 0 0 0 0 0 0 0 0 0 0
0 0 0 0 0 0 0 0 0 0 0 0 0 1 1 1 0 0 0 2 4 3 1 0 0 0 0 0 0 0 0 0 0 0 0 0 0 0 0 0 0 0 0 0 0 0 0 0 0
0 0 0 0 0 0 0 0 0 0 0 0 1 2 2 1 0 0 0 2 4 3 1 0 0 0 1 1 0 0 0 0 0 0 0 0 0 0 0 0 0 0 0 0 0 0 0 0 0
0 0 0 0 0 0 0 0 0 0 0 0 1 2 2 1 0 0 0 1 2 3 2 1 0 0 2 2 1 0 0 0 0 0 0 0 0 0 0 0 0 0 0 0 0 0 0 0 0
0 0 0 0 0 0 0 0 0 0 0 0 0 1 2 2 1 0 0 0 2 3 3 2 1 0 2 3 1 0 0 0 0 0 0 0 0 0 0 0 0 0 0 0 0 0 0 0 0
0 0 0 0 0 0 0 0 0 0 0 0 0 0 1 2 1 0 0 0 1 2 3 2 1 0 1 2 1 0 0 0 0 0 0 0 0 0 0 0 0 0 0 0 0 0 0 0 0
0 0 0 0 0 0 0 0 0 0 0 0 0 0 1 1 1 0 0 0 1 1 3 2 1 0 0 1 1 1 0 0 0 0 0 0 0 0 0 0 0 0 0 0 0 0 0 0 0
0 0 0 0 0 0 0 0 0 0 0 0 0 0 0 0 0 0 0 0 0 1 3 2 1 0 0 1 2 1 0 0 0 0 0 0 0 0 0 0 0 0 0 0 0 0 0 0 0
0 0 0 0 0 0 0 0 0 0 0 0 0 0 0 0 0 1 1 1 1 2 3 2 1 0 0 1 1 1 0 0 0 0 0 0 0 0 0 0 0 0 0 0 0 0 0 0 0
0 0 0 0 0 0 0 0 0 0 0 0 0 0 0 0 0 1 2 3 3 3 3 2 1 0 0 0 0 0 0 0 0 0 0 0 0 0 0 0 0 0 0 0 0 0 0 0 0
0 0 0 0 0 0 0 0 0 0 0 0 0 0 0 0 0 1 2 3 3 3 3 2 1 0 0 0 0 0 0 0 0 0 0 0 0 0 0 0 0 0 0 0 0 0 0 0 0
0 0 0 0 0 0 0 0 0 0 0 0 0 0 0 0 0 1 2 3 3 3 3 2 2 1 0 0 0 0 0 0 0 0 0 0 0 0 0 0 0 0 0 0 0 0 0 0 0
0 0 0 0 0 0 0 0 0 0 0 0 0 0 0 0 0 1 2 3 3 3 3 3 3 2 1 0 0 0 0 0 0 0 0 0 0 0 0 0 0 0 0 0 0 0 0 0 0
0 0 0 0 0 0 0 0 0 0 0 0 0 0 0 0 0 1 2 3 3 3 3 3 3 3 2 0 0 0 0 0 0 0 0 0 0 0 0 0 0 0 0 0 0 0 0 0 0
0 0 0 0 0 0 0 0 0 0 0 0 0 0 0 0 0 1 2 3 3 3 2 1 1 2 1 0 0 0 0 0 0 0 0 0 0 0 0 0 0 0 0 0 0 0 0 0 0
0 0 0 0 0 0 0 0 0 0 0 0 0 0 0 0 0 1 2 3 3 3 2 0 0 1 1 0 0 0 0 0 0 0 0 0 0 0 0 0 0 0 0 0 0 0 0 0 0
0 0 0 0 0 0 0 0 0 0 0 0 0 0 0 0 0 1 2 3 3 3 2 1 0 0 0 0 0 0 0 0 0 0 0 0 0 0 0 0 0 0 0 0 0 0 0 0 0
0 0 0 0 0 0 0 0 0 0 0 0 0 0 0 0 0 0 1 3 3 3 2 1 0 0 0 0 0 0 0 0 0 0 0 0 0 0 0 0 0 0 0 0 0 0 0 0 0
0 0 0 0 0 0 0 0 0 0 0 0 0 0 0 0 0 0 1 2 3 3 3 1 0 0 0 0 0 0 0 0 0 0 0 0 0 0 0 0 0 0 0 0 0 0 0 0 0
0 0 0 0 0 0 0 0 0 0 0 0 0 0 0 0 0 0 1 2 3 3 3 2 1 0 0 0 0 0 0 0 0 0 0 0 0 0 0 0 0 0 0 0 0 0 0 0 0
0 0 0 0 0 0 0 0 0 0 0 0 0 0 0 0 0 0 0 1 2 2 2 2 1 0 0 0 0 0 0 0 0 0 0 0 0 0 0 0 0 0 0 0 0 0 0 0 0
0 0 0 0 0 0 0 0 0 0 0 0 0 0 0 0 0 0 0 0 1 1 1 1 1 0 0 0 0 0 0 0 0 0 0 0 0 0 0 0 0 0 0 0 0 0 0 0 0
0 0 0 0 0 0 0 0 0 0 0 0 0 0 0 0 0 0 0 0 0 0 0 0 0 0 0 0 0 0 0 0 0 0 0 0 0 0 0 0 0 0 0 0 0 0 0 0 0
Wind_Speed
10 8 5 2 2 4 5 4 2 2 4 5 6 4 5 6 5 7 3 6 6 6 6 6 8 8 9 10 10 10 11 11 11 11 11 11 11 11 11 11 11 11 10 10 10 9 9 9 9
8 5 3 2 3 5 5 4 2 4 6 4 4 3 4 7 6 7 4 5 6 6 6 6 8 9 9 10 10 11 11 11 11 11 11 11 11 11 11 11 11 11 11 10 10 9 8 8 8
8 4 3 3 4 4 2 1 5 7 6 4 3 3 4 5 6 4 4 5 6 6 6 7 8 9 9 10 10 10 11 10 10 11 11 11 11 11 11 11 11 11 10 10 9 9 8 8 8
3 2 3 3 6 4 3 2 5 6 4 2 3 4 5 5 4 5 5 5 6 6 6 6 8 8 9 9 9 10 10 10 10 10 10 10 10 10 10 10 10 10 10 10 9 8 8 7 7
3 2 4 5 7 4 2 1 3 4 4 3 2 3 5 4 7 7 5 5 5 5 6 5 8 8 8 8 8 9 9 10 9 9 9 9 9 10 10 9 9 9 9 9 9 8 7 7 6
3 3 4 6 6 4 2 0 1 2 3 3 2 3 5 5 6 5 4 4 5 6 6 5 7 7 8 8 8 9 9 9 9 9 9 9 9 9 9 9 8 8 8 8 8 8 7 7 5
2 3 5 6 4 3 2 1 1 1 2 2 2 3 6 5 5 5 4 4 5 5 5 4 4 5 7 7 7 8 8 8 8 8 8 8 8 8 8 8 8 7 8 7 7 7 6 6 5
3 3 5 5 5 3 1 2 2 1 1 2 1 2 5 5 6 5 4 4 5 5 4 4 3 4 4 4 7 7 7 7 7 8 7 7 7 7 7 7 7 7 7 7 7 6 6 5 5
3 3 4 3 3 1 1 2 2 2 2 2 2 3 6 10 7 5 3 3 4 4 3 3 3 4 3 3 5 6 6 6 6 5 5 5 3 3 4 6 7 6 6 6 5 5 4 4 3
2 3 3 2 4 2 1 1 2 2 2 2 3 5 8 8 7 6 4 4 3 3 3 3 3 4 3 3 3 2 3 2 2 2 3 2 2 2 3 5 5 6 5 4 4 3 3 2 1
2 2 1 3 4 3 0 0 1 2 3 3 5 8 9 8 6 6 5 4 4 3 3 3 3 3 3 2 2 1 1 1 2 2 3 2 2 1 1 1 2 2 2 2 2 2 1 1 1
3 3 3 2 2 2 1 1 2 4 3 1 2 8 9 8 7 6 5 5 4 3 3 3 3 2 2 2 1 1 1 1 1 2 3 2 1 1 1 1 1 1 1 1 1 1 1 1 1
6 4 3 2 0 2 3 4 4 5 3 1 3 7 8 7 6 4 4 4 4 3 3 3 3 2 2 2 1 2 1 1 1 2 2 2 1 1 1 1 1 1 1 1 1 1 1 1 1
1 2 4 4 3 3 4 5 5 6 4 3 4 6 6 7 6 5 4 4 3 3 3 3 3 2 2 1 1 1 1 1 1 1 1 2 1 1 1 1 1 1 1 1 1 1 1 1 1
1 3 5 5 5 3 2 7 9 6 5 5 5 5 6 5 5 5 5 4 4 4 3 3 2 2 2 1 1 1 1 1 1 1 1 2 2 1 1 1 1 1 1 1 1 1 1 1 1
3 4 5 5 6 4 3 8 3 5 6 5 4 4 4 4 5 4 4 4 4 4 3 2 2 2 2 1 1 1 1 1 0 1 1 1 1 1 1 1 1 1 1 1 1 0 1 1 1
4 5 6 4 6 5 6 6 1 1 4 4 3 3 3 3 3 3 3 4 4 4 4 3 2 2 2 1 1 1 1 1 0 1 1 1 1 1 1 1 1 1 1 1 1 0 0 0 0
3 5 5 5 4 4 7 7 4 2 2 3 2 2 2 2 2 2 3 3 4 4 3 3 3 2 2 1 1 1 1 1 0 0 0 0 0 1 1 1 1 1 1 0 0 0 0 0 0
5 6 8 6 1 3 8 8 6 3 2 2 2 2 2 2 2 3 3 3 3 3 3 3 3 2 2 1 1 0 0 0 0 0 1 1 1 1 0 1 1 1 1 1 0 0 0 0 0
6 8 9 6 2 4 7 9 6 4 4 2 2 2 1 1 1 2 2 2 3 2 3 3 3 2 2 1 1 1 1 1 1 1 0 0 1 1 1 0 1 1 1 1 0 0 0 1 0
7 7 7 6 6 6 6 8 5 3 3 2 1 1 1 1 1 1 1 1 2 2 2 2 2 2 2 2 1 0 0 1 1 1 1 1 1 1 1 1 1 1 1 1 1 1 1 1 1
6 3 5 6 6 5 3 7 5 4 3 2 1 1 1 0 1 1 1 0 1 1 1 1 2 2 2 2 2 2 1 2 2 1 1 1 1 1 1 1 1 1 1 1 2 1 1 2 2
4 5 5 6 6 7 6 6 6 4 3 2 1 1 0 1 1 0 0 1 1 1 1 1 1 1 2 2 2 2 2 2 1 1 2 2 1 1 1 1 1 1 1 2 2 2 2 2 2
3 4 5 5 3 7 8 7 5 2 2 1 1 1 1 1 1 1 1 1 1 1 1 1 1 1 1 1 2 2 2 2 2 2 2 2 1 1 2 2 2 2 2 2 2 2 3 3 3
2 2 2 2 4 6 2 4 4 1 3 3 2 2 2 2 2 1 1 1 1 1 1 1 1 1 1 2 2 2 2 3 3 3 2 2 2 2 2 2 2 2 2 2 2 3 3 3 3
3 3 3 4 5 4 2 5 2 3 4 5 4 3 3 3 2 2 1 1 1 1 1 1 1 1 2 2 2 2 2 2 2 2 2 2 2 2 3 3 3 3 3 3 3 3 3 3 3
2 2 1 2 4 5 5 2 2 4 5 5 4 4 5 4 4 4 2 1 1 1 1 2 2 2 2 3 2 2 2 2 2 2 2 2 3 3 3 3 3 4 4 4 3 3 4 3 4
2 1 0 2 3 5 5 3 1 1 2 3 4 4 4 4 5 4 3 2 1 1 1 2 2 2 2 2 2 2 2 2 2 2 3 3 3 3 4 4 4 4 4 4 4 4 4 4 4
2 1 2 3 3 3 4 2 2 3 2 2 3 4 4 4 4 4 4 3 2 1 1 1 2 2 3 3 3 3 2 2 2 2 3 3 3 3 4 4 4 4 4 4 4 4 5 5 5
2 2 2 2 4 3 4 4 2 3 3 3 4 4 4 4 4 4 4 3 2 2 2 2 2 3 3 3 3 3 3 2 2 3 3 3 3 4 4 4 4 4 4 4 5 5 5 6 6
Wind_Direction
293 268 253 246 239 231 237 241 266 87 71 50 42 33 36 40 42 110 123 77 84 100 106 95 78 76 74 73 70 69 67 63 60 58 56 56 58 58 57 57 54 54 53 56 59 69 76 79 84
288 275 260 238 237 235 229 216 221 72 79 67 58 40 58 75 75 101 98 79 84 90 96 90 81 78 77 77 72 69 67 63 60 56 54 54 56 57 56 54 53 51 51 52 55 62 71 78 85
277 267 252 228 233 250 258 73 91 86 83 79 89 43 39 76 91 98 98 95 85 82 85 87 81 79 78 77 75 70 67 64 61 57 53 52 52 53 55 53 52 52 50 50 52 57 70 78 84
262 230 249 248 243 248 280 40 98 110 106 85 106 102 79 51 72 96 103 98 91 86 83 88 78 77 80 79 76 74 70 66 62 58 54 52 50 48 51 52 50 52 52 50 51 56 64 75 79
250 241 228 233 243 246 294 49 113 128 133 147 139 118 101 75 86 95 102 99 94 88 85 86 78 73 79 81 77 74 71 67 63 60 56 52 49 47 47 49 48 51 52 52 50 54 63 68 77
248 240 237 232 229 210 221 127 145 130 130 137 134 127 104 109 102 107 106 97 92 88 90 88 87 76 72 77 76 72 69 65 60 57 55 49 46 45 45 45 46 49 50 53 50 50 54 62 72
267 245 250 257 245 221 187 145 129 158 144 132 138 130 120 125 113 116 106 95 88 83 85 78 81 84 77 74 75 74 69 64 59 53 50 46 42 41 40 41 43 47 48 48 48 48 52 54 56
291 282 253 251 249 245 132 110 57 39 89 70 72 148 137 142 121 116 108 98 88 82 81 79 73 78 78 79 69 66 69 64 58 53 48 44 39 38 34 36 39 42 46 44 43 44 49 49 46
289 257 249 262 270 236 129 125 96 45 84 99 82 53 108 127 131 132 127 109 98 87 81 78 76 84 72 76 71 65 69 68 62 58 49 42 42 40 35 38 36 39 40 41 39 37 41 41 41
248 240 240 313 333 360 82 108 130 158 182 184 132 100 114 131 144 151 153 144 129 111 92 76 71 87 81 70 71 71 72 68 57 56 45 40 47 44 41 38 35 31 28 31 30 23 22 31 24
218 239 273 314 347 1 33 242 173 205 224 215 181 150 144 151 157 164 162 151 143 129 105 85 74 82 87 84 77 63 60 58 45 42 34 42 45 47 45 39 33 26 18 13 359 356 358 24 28
230 258 277 297 359 342 277 241 240 236 253 29 134 147 152 162 170 172 167 157 146 134 116 101 82 76 81 82 80 79 63 54 51 39 29 27 27 24 29 39 22 20 359 343 349 341 348 359 32
229 246 259 267 265 285 291 263 263 246 242 104 124 145 159 169 172 168 159 145 140 141 133 112 99 89 81 81 85 65 53 49 54 48 28 28 21 20 13 18 10 17 360 343 337 344 338 327 10
274 267 263 248 227 236 253 262 252 243 214 185 168 167 171 174 170 167 161 152 151 148 133 116 108 109 97 77 81 86 68 54 50 45 30 24 29 19 8 4 1 354 347 338 324 326 327 322 18
287 273 263 240 219 212 247 260 230 228 210 202 189 175 173 174 167 168 162 157 150 145 129 121 122 109 103 90 78 74 82 64 69 47 29 34 33 15 357 355 343 326 333 339 335 339 355 352 17
237 243 246 217 199 175 203 258 225 192 199 210 191 179 175 173 167 161 149 143 139 138 137 135 132 121 118 100 73 90 93 83 59 56 40 44 33 1 3 347 313 302 325 340 313 341 15 0 21
221 246 249 232 190 178 208 254 248 152 190 205 197 189 177 171 166 150 137 138 137 137 141 144 126 126 125 109 103 97 87 69 63 52 38 32 27 346 353 315 292 291 310 312 291 359 78 18 12
248 257 267 254 198 204 228 246 247 229 206 212 198 186 187 183 181 151 136 127 125 131 137 138 125 117 115 106 93 92 97 73 69 46 235 269 265 307 321 298 306 302 288 294 297 41 35 172 276
288 288 283 281 281 244 247 254 249 219 209 215 209 206 210 205 143 123 117 115 120 131 136 139 135 132 128 132 135 158 191 185 188 250 241 260 286 297 251 277 297 304 275 256 242 170 130 355 51
273 277 278 285 293 275 268 266 257 209 214 207 195 199 220 176 108 114 122 130 141 150 150 148 150 152 149 158 186 203 219 242 247 264 285 312 324 304 294 253 258 285 287 277 267 113 199 257 210
263 259 277 293 307 270 272 272 227 196 190 177 170 182 222 187 158 125 113 144 147 159 161 170 166 168 167 157 153 160 31 351 321 297 273 287 300 292 287 263 251 256 269 241 239 221 185 217 254
272 306 294 294 294 274 237 277 243 177 171 184 222 199 227 350 122 127 131 170 176 174 166 172 177 178 180 175 177 184 210 228 259 258 267 277 269 264 269 258 248 242 242 251 244 233 230 203 229
275 312 286 273 267 275 246 249 265 165 196 203 204 174 142 18 33 90 142 203 197 173 169 181 193 197 200 201 196 196 224 244 245 245 257 269 264 247 243 258 254 242 241 246 252 237 234 224 219
291 295 271 249 244 254 229 219 265 202 192 144 66 27 22 8 2 348 34 42 7 52 109 188 210 230 217 223 215 212 226 235 229 235 238 248 257 250 233 244 245 242 238 235 246 245 239 234 231
286 311 302 265 228 245 203 211 242 121 90 108 92 30 14 21 10 360 20 22 3 7 2 308 251 269 250 240 232 234 231 231 226 228 232 238 247 255 238 244 240 242 242 237 243 240 240 234 227
254 229 225 253 261 289 241 219 202 95 81 67 60 38 20 19 11 1 8 26 356 336 333 322 290 288 280 263 253 249 249 242 234 234 239 246 250 252 241 240 235 238 241 244 246 245 235 235 228
274 239 283 281 280 270 249 209 131 71 54 44 38 30 17 11 7 0 357 13 355 314 304 308 307 301 287 281 278 263 257 260 252 247 245 251 253 254 244 242 238 238 233 231 234 241 233 230 230
283 309 176 233 273 274 264 234 262 43 25 16 19 13 4 3 359 352 350 347 343 306 304 320 318 309 297 295 290 290 278 263 259 258 255 251 249 251 247 245 238 240 236 230 229 238 233 229 238
198 210 236 257 254 264 280 279 57 79 79 35 17 13 4 358 350 343 343 340 338 336 324 320 319 320 317 310 307 298 289 279 261 256 257 257 259 255 253 251 244 243 240 234 229 235 234 228 236
163 190 177 215 268 258 272 263 74 74 64 49 21 7 2 2 357 348 343 338 339 330 318 312 317 317 313 313 308 299 294 287 277 273 270 270 265 258 256 258 254 248 242 238 231 236 239 226 226